Weather History for 03772 - October, 2011

Change the Weather History Date:

Friday, October 7, 2011

  Actual Average Record
Temperature  
Mean Temperature 55 °F -  
Max Temperature 62 °F 56 °F - ()
Min Temperature 48 °F 44 °F - ()
Degree Days  
Heating Degree Days 10    
Growing Degree Days 5 (Base 50)    
Moisture  
Dew Point 44 °F    
Average Humidity 71    
Maximum Humidity 87    
Minimum Humidity 43    
Precipitation  
Precipitation 0.00 in - - ()
Sea Level Pressure  
Sea Level Pressure 30.06 in    
Wind  
Wind Speed 12 mph ()    
Max Wind Speed 17 mph    
Max Gust Speed -    
Visibility 6.7 miles    
Events      
T = Trace of Precipitation, MM = Missing Value Source: Averaged Metar Reports

Daily Weather History Graph

Daily Weather History Graph

Search for Another Location

Airport or City:

Trip Planner

Search our weather history database for the weather conditions in past years. The results will help you decide how hot, cold, wet, or windy it might be!

Date:

Astronomy

Oct. 07, 2011 Rise Set
Actual Time 7:11 AM BST 6:26 PM BST
Civil Twilight 6:38 AM BST 7:00 PM BST
Nautical Twilight 5:59 AM BST 7:38 PM BST
Astronomical Twilight 5:20 AM BST 8:17 PM BST
Moon 4:26 PM BST (10/7) 2:17 AM BST (10/7)
Length of Visible Light 12h 21m
Length of Day
11h 15m
Waxing Gibbous, 81% of the Moon is Illuminated
Oct 7
Waxing Gibbous
Oct 12
Full
Oct 20
Last Quarter
Oct 26
New
Nov 2
First Quarter

Hourly Weather History & Observations

Time (BST) Temp. Dew Point Humidity Pressure Visibility Wind Dir Wind Speed Gust Speed Precip Events Conditions
12:20 AM 51.8 °F 41.0 °F 67% 29.89 in 6.2 mi West 17.3 mph - N/A   Partly Cloudy
12:50 AM 52 °F 42 °F 58% 29.90 in 19 mi West 16.1 mph - -   Partly Cloudy
12:50 AM 51.8 °F 41.0 °F 67% 29.89 in 6.2 mi West 17.3 mph - N/A   Partly Cloudy
1:20 AM 51.8 °F 42.8 °F 71% 29.89 in 6.2 mi West 17.3 mph - N/A   Partly Cloudy
1:50 AM 51.8 °F 42.8 °F 71% 29.92 in 6.2 mi WNW 15.0 mph - N/A   Scattered Clouds
2:20 AM 51.8 °F 42.8 °F 71% 29.92 in 6.2 mi WNW 13.8 mph - N/A   Scattered Clouds
2:50 AM 50.0 °F 42.8 °F 76% 29.95 in 6.2 mi WNW 12.7 mph - N/A   Partly Cloudy
3:20 AM 48.2 °F 42.8 °F 82% 29.95 in - West 10.4 mph - N/A   Clear
3:50 AM 49 °F 42 °F 70% 29.95 in 22 mi West 10.4 mph - -  
3:50 AM 48.2 °F 42.8 °F 82% 29.95 in - West 12.7 mph - N/A   Clear
4:20 AM 48.2 °F 42.8 °F 82% 29.95 in - West 12.7 mph - N/A   Clear
4:50 AM 48.2 °F 42.8 °F 82% 29.98 in - West 12.7 mph - N/A   Clear
5:20 AM 48.2 °F 42.8 °F 82% 29.98 in - West 13.8 mph - N/A   Clear
5:50 AM 48.2 °F 42.8 °F 82% 29.98 in - West 11.5 mph - N/A   Clear
6:20 AM 50.0 °F 42.8 °F 76% 29.98 in - West 11.5 mph - N/A   Clear
6:50 AM 51 °F 43 °F 67% 29.99 in 22 mi West 12.7 mph - -  
6:50 AM 50.0 °F 42.8 °F 76% 29.98 in - West 13.8 mph - N/A   Clear
7:20 AM 50.0 °F 42.8 °F 76% 30.01 in - West 12.7 mph - N/A   Clear
7:50 AM 50.0 °F 44.6 °F 82% 30.01 in - West 12.7 mph - N/A   Clear
8:20 AM 51.8 °F 44.6 °F 76% 30.01 in - West 11.5 mph - N/A   Clear
8:50 AM 51.8 °F 44.6 °F 76% 30.04 in 6.2 mi West 12.7 mph - N/A   Partly Cloudy
9:20 AM 53.6 °F 44.6 °F 72% 30.04 in 6.2 mi West 12.7 mph - N/A   Scattered Clouds
9:50 AM 53 °F 45 °F 65% 30.06 in 25 mi West 11.5 mph - -   Scattered Clouds
9:50 AM 53.6 °F 44.6 °F 72% 30.06 in 6.2 mi WNW 11.5 mph - N/A   Partly Cloudy
10:20 AM 53.6 °F 44.6 °F 72% 30.06 in 6.2 mi West 10.4 mph - N/A   Scattered Clouds
10:50 AM 55.4 °F 46.4 °F 72% 30.06 in 6.2 mi WNW 10.4 mph - N/A   Mostly Cloudy
11:20 AM 55.4 °F 44.6 °F 67% 30.06 in 6.2 mi WNW 11.5 mph - N/A   Mostly Cloudy
11:50 AM 55.4 °F 46.4 °F 72% 30.06 in 6.2 mi NW 10.4 mph - N/A   Mostly Cloudy
12:20 PM 57.2 °F 46.4 °F 67% 30.09 in 6.2 mi WNW 11.5 mph - N/A   Scattered Clouds
12:50 PM 58 °F 46 °F 54% 30.09 in 25 mi WNW 12.7 mph - -   Scattered Clouds
12:50 PM 57.2 °F 46.4 °F 67% 30.09 in 6.2 mi WNW 10.4 mph - N/A   Mostly Cloudy
1:20 PM 59.0 °F 46.4 °F 63% 30.09 in 6.2 mi WNW 13.8 mph - N/A   Scattered Clouds
1:50 PM 59.0 °F 46.4 °F 63% 30.09 in 6.2 mi NW 12.7 mph - N/A   Mostly Cloudy
2:20 PM 59.0 °F 44.6 °F 59% 30.09 in 6.2 mi WNW 12.7 mph - N/A   Partly Cloudy
2:50 PM 59.0 °F 44.6 °F 59% 30.09 in 6.2 mi NW 12.7 mph - N/A   Scattered Clouds
3:20 PM 60.8 °F 42.8 °F 52% 30.09 in 6.2 mi NNW 9.2 mph - N/A   Scattered Clouds
3:50 PM 60 °F 44 °F 43% 30.09 in 22 mi NW 12.7 mph - -   Scattered Clouds
3:50 PM 60.8 °F 42.8 °F 52% 30.09 in 6.2 mi NW 12.7 mph - N/A   Scattered Clouds
4:20 PM 59.0 °F 42.8 °F 55% 30.09 in 6.2 mi NW 13.8 mph - N/A   Partly Cloudy
4:50 PM 57.2 °F 42.8 °F 59% 30.12 in 6.2 mi WNW 13.8 mph - N/A   Partly Cloudy
5:20 PM 57.2 °F 44.6 °F 63% 30.12 in 6.2 mi WNW 11.5 mph - N/A   Partly Cloudy
5:50 PM 55.4 °F 44.6 °F 67% 30.12 in 6.2 mi West 10.4 mph - N/A   Partly Cloudy
6:20 PM 53.6 °F 46.4 °F 77% 30.12 in - WNW 9.2 mph - N/A   Clear
6:50 PM 55 °F 46 °F 62% 30.16 in 25 mi WNW 6.9 mph - -   Partly Cloudy
6:50 PM 53.6 °F 46.4 °F 77% 30.15 in - WNW 8.1 mph - N/A   Clear
7:20 PM 53.6 °F 46.4 °F 77% 30.15 in - WNW 6.9 mph - N/A   Clear
7:50 PM 53.6 °F 46.4 °F 77% 30.15 in - WNW 8.1 mph - N/A   Clear
8:20 PM 53.6 °F 44.6 °F 72% 30.18 in - WNW 9.2 mph - N/A   Clear
8:50 PM 51.8 °F 46.4 °F 82% 30.18 in - West 8.1 mph - N/A   Clear
9:20 PM 51.8 °F 44.6 °F 76% 30.18 in - WNW 8.1 mph - N/A   Clear
9:50 PM 51.8 °F 44.6 °F 76% 30.18 in - WNW 6.9 mph - N/A   Clear
10:20 PM 51.8 °F 44.6 °F 76% 30.18 in - WNW 6.9 mph - N/A   Clear
10:50 PM 51.8 °F 44.6 °F 76% 30.21 in - WNW 6.9 mph - N/A   Clear
11:20 PM 50.0 °F 44.6 °F 82% 30.18 in - WNW 4.6 mph - N/A   Clear
11:50 PM 48.2 °F 44.6 °F 87% 30.18 in - WNW 8.1 mph - N/A   Clear